Regional Weather Roundup
Issued by NWS

Home | Current Version | Previous Version | Graphics & Text | Print | Product List | Glossary On
Versions: 1 2 3 4 5 6 7 8 9 10 11 12 13 14 15 16 17 18 19 20 21 22 23 24 25 26 27 28 29 30 31 32 33 34 35 36 37 38 39 40 41 42 43 44 45 46 47 48 49 50
000
ASUS43 KIND 271559
RWRIN

WEATHER ROUNDUP FOR INDIANA
NATIONAL WEATHER SERVICE INDIANAPOLIS IN
1200 PM EDT FRI MAY 27 2016

NOTE: "FAIR" INDICATES FEW OR NO CLOUDS BELOW 12,000 FEET WITH NO
SIGNIFICANT WEATHER AND/OR OBSTRUCTIONS TO VISIBILITY.

* - STATION DOES NOT REPORT WEATHER SUCH AS PRECIPITATION OR FOG.

+ - STATION NOT QUALITY CONTROLLED BY THE NATIONAL WEATHER SERVICE.
    USE DATA WITH CAUTION...ESPECIALLY DEWPOINT AND RELATIVE
    HUMIDITY OBSERVATIONS.

INZ001>003-010>013-019-020-271700-
NORTHWEST INDIANA

CITY           SKY/WX    TMP DP  RH WIND       PRES   REMARKS
GARY /AIRPORT/ PTSUNNY   75  72  88 S8        29.93R
RENSSELAER +   CLOUDY    77  68  73 SW14      29.95F

$$

LMZ046-743>745-271700-
SOUTHERN LAKE MICHIGAN

STATION/POSITION TIME  TEMP    WIND        PRES    WAVE
                       AIR SEA DIR/SP/G            HT
                 (UTC) (F)     (DEG/KT/KT) (MB)    (FT)
BURNS HARBOR     1500   74     190/ 12/ 17 1013.5F
MICHIGAN CITY    1500   72     140/  9/ 11   N/A
5NW MICH CITY    1500   65 59  170/  4/  6   N/A     1

$$

INZ004-005-014>016-021>024-271700-
NORTH CENTRAL INDIANA

CITY           SKY/WX    TMP DP  RH WIND       PRES   REMARKS
ELKHART        CLOUDY    75  68  78 SW9       29.97S
GOSHEN         LGT RAIN  75  63  66 S10       29.97F
SOUTH BEND     LGT RAIN  72  65  78 S9        29.96S

$$

INZ006>009-017-018-025>027-271700-
NORTHEAST INDIANA

CITY           SKY/WX    TMP DP  RH WIND       PRES   REMARKS
ANGOLA *+        N/A     73  66  78 S6        30.00R
FORT WAYNE     CLOUDY    73  63  70 SW7       30.01R

$$

INZ028-029-035-036-043>045-051>053-271700-
WEST CENTRAL INDIANA

CITY           SKY/WX    TMP DP  RH WIND       PRES   REMARKS
CRAWFORDSVL +  CLOUDY    76  66  70 S9        29.98F
GREENCASTLE +  MOSUNNY   77  68  73 S7        30.00S
LAFAYETTE      PTSUNNY   75  63  66 S8        29.97S
TERRE HAUTE    MOSUNNY   78  66  66 S14       29.97F

$$

INZ030>032-037>040-046>048-054>057-064-065-271700-
CENTRAL INDIANA

CITY           SKY/WX    TMP DP  RH WIND       PRES   REMARKS
ANDERSON       SUNNY     79  66  65 S12       30.03
COLUMBUS       MOSUNNY   77  66  69 S9        30.02S
INDIANAPOLIS   MOSUNNY   78  66  66 S10       29.99S
-EAGLE CREEK   SUNNY     78  64  61 S8        30.00S
KOKOMO *+      CLOUDY    81  64  57 SW14      29.99S
SHELBYVILLE    SUNNY     81  64  56 S10       30.00F

$$

INZ033-034-041-042-049-050-058-059-271700-
EAST CENTRAL INDIANA

CITY           SKY/WX    TMP DP  RH WIND       PRES   REMARKS
MUNCIE         MOSUNNY   81  64  56 SW10      30.01S

$$

INZ060-061-067>069-081>083-085>088-271700-
SOUTHWEST INDIANA

CITY           SKY/WX    TMP DP  RH WIND       PRES   REMARKS
EVANSVILLE     PTSUNNY   77  66  68 S8        29.99R
HUNTINGBURG *+ MOSUNNY   81  68  65 S16G22    30.00S

$$

INZ062-063-066-070>080-084-089>092-271700-
SOUTH CENTRAL AND SOUTHEAST INDIANA

CITY           SKY/WX    TMP DP  RH WIND       PRES   REMARKS
BLOOMINGTON    MOSUNNY   80  65  59 S10       30.00F
MADISON *+     SUNNY     81  63  54 S8        30.06S
SEYMOUR +      SUNNY     81  66  61 S10       30.02S

$$





USA.gov is the U.S. government's official web portal to all federal, state and local government web resources and services.